QPF
0.05 0.04 0.04 0.04 0.03 0.04 0.05 0.09 0.12 0.10 0.09 0.08 0.08 0.10 0.09 0.07 0.06 0.05 0.05 0.04 0.04 0.07 0.12 0.12 0.10 0.07 0.06 0.05 0.06 0.09 0.10 0.06 0.03 0.03 0.03 0.02 0.02 0.01 0.01 0.01 0.01 0.01 0.01
0.05 0.06 0.06 0.06 0.05 0.05 0.05 0.08 0.13 0.12 0.10 0.07 0.08 0.09 0.12 0.09 0.07 0.07 0.06 0.06 0.04 0.05 0.08 0.12 0.11 0.08 0.06 0.06 0.06 0.07 0.09 0.09 0.05 0.03 0.03 0.03 0.03 0.02 0.01 0.01 0.02 0.02 0.02
0.06 0.07 0.08 0.08 0.07 0.06 0.06 0.08 0.12 0.14 0.13 0.08 0.08 0.09 0.12 0.14 0.10 0.07 0.07 0.07 0.07 0.06 0.08 0.11 0.11 0.08 0.06 0.05 0.06 0.07 0.09 0.10 0.08 0.04 0.03 0.03 0.03 0.03 0.02 0.02 0.02 0.02 0.03
0.05 0.06 0.07 0.08 0.11 0.09 0.08 0.09 0.12 0.15 0.17 0.12 0.09 0.08 0.10 0.14 0.14 0.11 0.08 0.08 0.09 0.08 0.09 0.12 0.11 0.09 0.07 0.05 0.05 0.06 0.09 0.11 0.09 0.06 0.04 0.03 0.03 0.03 0.03 0.03 0.03 0.03 0.03
0.05 0.05 0.06 0.06 0.08 0.10 0.10 0.10 0.11 0.15 0.18 0.19 0.12 0.09 0.10 0.12 0.14 0.14 0.12 0.10 0.08 0.09 0.10 0.12 0.14 0.11 0.08 0.06 0.04 0.04 0.06 0.09 0.09 0.07 0.05 0.04 0.03 0.03 0.03 0.04 0.04 0.04 0.03
0.05 0.05 0.06 0.05 0.07 0.08 0.08 0.09 0.09 0.12 0.17 0.23 0.21 0.13 0.10 0.12 0.13 0.15 0.15 0.11 0.09 0.07 0.07 0.11 0.13 0.12 0.08 0.06 0.04 0.03 0.04 0.06 0.08 0.07 0.06 0.05 0.04 0.03 0.03 0.03 0.03 0.04 0.03
0.04 0.04 0.04 0.05 0.06 0.08 0.09 0.10 0.09 0.09 0.12 0.18 0.24 0.20 0.13 0.12 0.13 0.13 0.16 0.15 0.10 0.07 0.06 0.08 0.11 0.11 0.09 0.06 0.04 0.03 0.03 0.04 0.06 0.07 0.06 0.04 0.04 0.04 0.04 0.04 0.04 0.04 0.04
0.04 0.04 0.03 0.03 0.04 0.06 0.07 0.08 0.07 0.08 0.09 0.11 0.16 0.21 0.19 0.14 0.12 0.12 0.14 0.17 0.13 0.09 0.08 0.08 0.09 0.09 0.09 0.07 0.05 0.03 0.03 0.03 0.04 0.05 0.06 0.05 0.04 0.04 0.04 0.04 0.04 0.04 0.04
0.03 0.03 0.02 0.02 0.03 0.04 0.04 0.05 0.05 0.06 0.07 0.08 0.10 0.15 0.20 0.18 0.15 0.14 0.14 0.17 0.18 0.13 0.10 0.10 0.09 0.09 0.09 0.08 0.06 0.05 0.04 0.03 0.03 0.03 0.03 0.05 0.05 0.04 0.04 0.04 0.04 0.05 0.04
0.03 0.02 0.02 0.02 0.02 0.03 0.03 0.03 0.03 0.04 0.05 0.06 0.08 0.10 0.13 0.17 0.16 0.15 0.14 0.15 0.19 0.21 0.17 0.12 0.11 0.11 0.11 0.10 0.09 0.07 0.05 0.04 0.04 0.03 0.02 0.02 0.03 0.03 0.04 0.04 0.04 0.04 0.04
0.03 0.04 0.03 0.03 0.02 0.03 0.03 0.02 0.02 0.02 0.03 0.05 0.07 0.08 0.08 0.10 0.12 0.12 0.11 0.12 0.15 0.21 0.25 0.20 0.15 0.14 0.15 0.14 0.13 0.10 0.08 0.06 0.05 0.04 0.03 0.02 0.02 0.02 0.02 0.03 0.04 0.04 0.04
0.04 0.04 0.04 0.04 0.03 0.03 0.03 0.03 0.02 0.02 0.02 0.04 0.05 0.08 0.08 0.07 0.08 0.09 0.10 0.10 0.11 0.13 0.18 0.22 0.18 0.12 0.11 0.13 0.14 0.14 0.13 0.10 0.07 0.05 0.03 0.02 0.02 0.02 0.02 0.03 0.03 0.03 0.04
0.04 0.04 0.04 0.04 0.04 0.04 0.04 0.04 0.03 0.02 0.01 0.02 0.03 0.05 0.08 0.07 0.05 0.04 0.06 0.09 0.10 0.11 0.13 0.15 0.18 0.18 0.14 0.12 0.12 0.13 0.14 0.14 0.12 0.10 0.07 0.05 0.03 0.02 0.02 0.02 0.03 0.03 0.03
0.05 0.04 0.04 0.05 0.06 0.05 0.04 0.05 0.05 0.03 0.02 0.02 0.02 0.02 0.05 0.08 0.08 0.04 0.03 0.05 0.07 0.08 0.10 0.13 0.13 0.15 0.17 0.15 0.13 0.12 0.11 0.11 0.11 0.10 0.08 0.06 0.04 0.04 0.03 0.02 0.02 0.03 0.03
0.03 0.05 0.05 0.05 0.05 0.05 0.06 0.06 0.07 0.05 0.03 0.02 0.02 0.02 0.02 0.04 0.07 0.08 0.06 0.05 0.06 0.06 0.08 0.10 0.10 0.10 0.12 0.14 0.14 0.13 0.12 0.11 0.09 0.08 0.08 0.07 0.05 0.03 0.03 0.03 0.02 0.03 0.03
0.02 0.03 0.04 0.04 0.04 0.06 0.07 0.08 0.08 0.07 0.04 0.02 0.02 0.02 0.03 0.04 0.04 0.05 0.08 0.08 0.08 0.08 0.07 0.08 0.08 0.08 0.09 0.11 0.11 0.11 0.11 0.11 0.11 0.10 0.08 0.06 0.05 0.04 0.04 0.03 0.03 0.02 0.03
0.02 0.02 0.03 0.04 0.04 0.05 0.07 0.08 0.10 0.09 0.07 0.03 0.03 0.03 0.03 0.04 0.05 0.04 0.05 0.07 0.07 0.09 0.09 0.08 0.08 0.07 0.07 0.08 0.07 0.08 0.08 0.08 0.09 0.09 0.08 0.08 0.06 0.05 0.04 0.04 0.03 0.02 0.02
0.02 0.02 0.03 0.03 0.03 0.03 0.05 0.07 0.11 0.12 0.10 0.07 0.05 0.05 0.04 0.04 0.05 0.04 0.03 0.04 0.05 0.06 0.07 0.08 0.07 0.06 0.06 0.06 0.06 0.07 0.07 0.06 0.07 0.07 0.07 0.06 0.06 0.06 0.05 0.05 0.04 0.04 0.02
0.02 0.03 0.03 0.04 0.03 0.03 0.03 0.05 0.08 0.10 0.11 0.09 0.06 0.05 0.06 0.06 0.06 0.05 0.04 0.03 0.03 0.04 0.05 0.06 0.06 0.06 0.06 0.06 0.06 0.07 0.07 0.07 0.06 0.06 0.06 0.05 0.05 0.05 0.06 0.07 0.06 0.05 0.05
0.02 0.02 0.03 0.03 0.03 0.03 0.03 0.03 0.05 0.07 0.09 0.09 0.07 0.06 0.06 0.06 0.07 0.07 0.06 0.04 0.04 0.04 0.05 0.06 0.06 0.05 0.07 0.08 0.07 0.07 0.07 0.08 0.07 0.06 0.05 0.06 0.06 0.06 0.06 0.06 0.07 0.06 0.06
0.02 0.02 0.03 0.03 0.03 0.03 0.03 0.03 0.03 0.05 0.06 0.06 0.07 0.07 0.06 0.07 0.07 0.07 0.07 0.06 0.05 0.06 0.05 0.06 0.06 0.05 0.05 0.08 0.07 0.05 0.05 0.07 0.08 0.07 0.07 0.07 0.07 0.06 0.07 0.07 0.06 0.06 0.05
0.01 0.02 0.03 0.03 0.03 0.02 0.03 0.03 0.04 0.04 0.03 0.04 0.05 0.05 0.05 0.06 0.06 0.07 0.07 0.07 0.07 0.07 0.06 0.06 0.06 0.05 0.05 0.06 0.06 0.05 0.05 0.05 0.07 0.08 0.07 0.07 0.08 0.07 0.07 0.07 0.07 0.07 0.06
0.01 0.02 0.02 0.03 0.03 0.02 0.02 0.03 0.03 0.03 0.03 0.02 0.03 0.03 0.04 0.05 0.05 0.06 0.07 0.08 0.08 0.07 0.06 0.06 0.06 0.06 0.05 0.05 0.05 0.04 0.04 0.04 0.04 0.06 0.07 0.07 0.08 0.08 0.07 0.07 0.06 0.05 0.05
0.01 0.02 0.02 0.03 0.03 0.02 0.02 0.03 0.03 0.02 0.02 0.02 0.02 0.02 0.03 0.04 0.04 0.05 0.06 0.07 0.08 0.07 0.06 0.07 0.07 0.05 0.04 0.04 0.04 0.03 0.03 0.03 0.03 0.04 0.05 0.06 0.06 0.06 0.06 0.07 0.07 0.05 0.05
0.01 0.02 0.02 0.03 0.02 0.02 0.02 0.02 0.02 0.02 0.01 0.01 0.01 0.02 0.02 0.03 0.03 0.04 0.05 0.06 0.06 0.06 0.06 0.06 0.06 0.06 0.04 0.03 0.03 0.04 0.03 0.04 0.04 0.04 0.04 0.05 0.05 0.04 0.04 0.05 0.06 0.06 0.06
0.01 0.02 0.02 0.02 0.02 0.02 0.01 0.01 0.01 0.01 0.01 0.02 0.02 0.02 0.02 0.02 0.03 0.03 0.04 0.05 0.05 0.05 0.05 0.06 0.06 0.05 0.05 0.04 0.04 0.04 0.04 0.04 0.05 0.05 0.04 0.04 0.04 0.04 0.04 0.04 0.04 0.04 0.04
MSLP
1025.98 1025.17 1024.35 1023.55 1022.80 1022.06 1021.30 1020.44 1019.41 1018.16 1016.67 1014.97 1013.14 1011.30 1009.60 1008.17 1007.15 1006.61 1006.56 1006.98 1007.77 1008.83 1010.03 1011.26 1012.43 1013.50 1014.48 1015.37 1016.22 1017.05 1017.91 1018.78 1019.67 1020.54 1021.36 1022.11 1022.76 1023.32 1023.79 1024.19 1024.55 1024.88 1025.22
1026.15 1025.26 1024.35 1023.45 1022.60 1021.76 1020.92 1020.01 1018.95 1017.70 1016.23 1014.58 1012.81 1011.02 1009.35 1007.94 1006.91 1006.33 1006.24 1006.59 1007.32 1008.33 1009.51 1010.73 1011.92 1013.03 1014.04 1014.97 1015.84 1016.68 1017.52 1018.39 1019.26 1020.14 1021.00 1021.80 1022.54 1023.20 1023.78 1024.28 1024.71 1025.10 1025.46
1026.47 1025.48 1024.44 1023.40 1022.40 1021.44 1020.49 1019.52 1018.45 1017.23 1015.84 1014.29 1012.63 1010.95 1009.35 1007.98 1006.94 1006.32 1006.14 1006.39 1007.01 1007.93 1009.03 1010.21 1011.39 1012.51 1013.54 1014.48 1015.35 1016.18 1017.00 1017.83 1018.68 1019.55 1020.42 1021.28 1022.09 1022.85 1023.55 1024.17 1024.71 1025.18 1025.60
1026.90 1025.82 1024.63 1023.43 1022.25 1021.14 1020.08 1019.04 1017.96 1016.80 1015.52 1014.12 1012.61 1011.06 1009.58 1008.26 1007.22 1006.54 1006.25 1006.36 1006.83 1007.61 1008.59 1009.69 1010.83 1011.92 1012.95 1013.89 1014.76 1015.58 1016.37 1017.16 1017.98 1018.82 1019.69 1020.57 1021.45 1022.31 1023.12 1023.86 1024.52 1025.09 1025.58
1027.40 1026.23 1024.92 1023.55 1022.20 1020.93 1019.75 1018.64 1017.56 1016.46 1015.30 1014.05 1012.72 1011.34 1009.98 1008.74 1007.70 1006.95 1006.53 1006.48 1006.77 1007.36 1008.19 1009.18 1010.23 1011.29 1012.30 1013.24 1014.11 1014.91 1015.68 1016.43 1017.21 1018.02 1018.87 1019.77 1020.69 1021.62 1022.52 1023.37 1024.14 1024.82 1025.39
1027.93 1026.70 1025.28 1023.78 1022.28 1020.86 1019.56 1018.38 1017.30 1016.26 1015.21 1014.11 1012.95 1011.74 1010.52 1009.34 1008.31 1007.49 1006.95 1006.71 1006.80 1007.20 1007.84 1008.68 1009.63 1010.62 1011.60 1012.54 1013.41 1014.21 1014.96 1015.70 1016.44 1017.22 1018.05 1018.94 1019.88 1020.85 1021.81 1022.74 1023.60 1024.36 1025.02
1028.41 1027.16 1025.68 1024.09 1022.49 1020.96 1019.56 1018.32 1017.22 1016.22 1015.27 1014.31 1013.30 1012.24 1011.14 1010.04 1009.01 1008.13 1007.46 1007.05 1006.93 1007.10 1007.54 1008.21 1009.04 1009.95 1010.89 1011.81 1012.69 1013.51 1014.27 1015.00 1015.72 1016.48 1017.28 1018.15 1019.08 1020.05 1021.04 1022.01 1022.93 1023.76 1024.48
1028.79 1027.56 1026.09 1024.47 1022.81 1021.22 1019.76 1018.48 1017.36 1016.39 1015.50 1014.64 1013.76 1012.82 1011.83 1010.79 1009.78 1008.84 1008.05 1007.47 1007.14 1007.10 1007.33 1007.81 1008.49 1009.30 1010.19 1011.10 1011.98 1012.82 1013.61 1014.35 1015.08 1015.82 1016.60 1017.43 1018.33 1019.28 1020.26 1021.24 1022.18 1023.04 1023.81
1029.02 1027.86 1026.44 1024.86 1023.22 1021.63 1020.15 1018.85 1017.73 1016.77 1015.92 1015.13 1014.33 1013.49 1012.57 1011.59 1010.59 1009.60 1008.71 1007.97 1007.45 1007.19 1007.20 1007.49 1008.00 1008.70 1009.52 1010.40 1011.29 1012.16 1012.99 1013.77 1014.52 1015.26 1016.01 1016.81 1017.66 1018.56 1019.50 1020.45 1021.37 1022.25 1023.04
1029.07 1028.02 1026.71 1025.24 1023.68 1022.15 1020.70 1019.41 1018.30 1017.34 1016.51 1015.76 1015.01 1014.23 1013.37 1012.44 1011.43 1010.41 1009.43 1008.56 1007.86 1007.39 1007.19 1007.27 1007.60 1008.16 1008.89 1009.73 1010.62 1011.52 1012.39 1013.21 1014.00 1014.75 1015.50 1016.27 1017.07 1017.91 1018.78 1019.68 1020.56 1021.42 1022.22
1028.93 1028.02 1026.88 1025.57 1024.16 1022.74 1021.37 1020.13 1019.03 1018.09 1017.26 1016.51 1015.79 1015.04 1014.22 1013.31 1012.31 1011.26 1010.20 1009.21 1008.35 1007.69 1007.28 1007.14 1007.29 1007.69 1008.31 1009.08 1009.95 1010.87 1011.78 1012.65 1013.48 1014.26 1015.01 1015.76 1016.51 1017.29 1018.10 1018.93 1019.76 1020.59 1021.38
1028.66 1027.91 1026.96 1025.85 1024.63 1023.36 1022.11 1020.94 1019.88 1018.95 1018.12 1017.36 1016.63 1015.89 1015.08 1014.18 1013.18 1012.10 1010.99 1009.90 1008.89 1008.06 1007.44 1007.10 1007.05 1007.28 1007.76 1008.44 1009.27 1010.18 1011.12 1012.03 1012.90 1013.72 1014.49 1015.23 1015.95 1016.68 1017.43 1018.20 1018.98 1019.77 1020.55
1028.32 1027.75 1027.00 1026.11 1025.09 1024.00 1022.89 1021.80 1020.79 1019.86 1019.02 1018.24 1017.50 1016.74 1015.92 1015.02 1014.02 1012.92 1011.75 1010.58 1009.45 1008.46 1007.66 1007.12 1006.86 1006.91 1007.23 1007.80 1008.55 1009.43 1010.37 1011.32 1012.22 1013.08 1013.87 1014.62 1015.33 1016.03 1016.73 1017.46 1018.20 1018.96 1019.73
1027.98 1027.59 1027.06 1026.37 1025.56 1024.64 1023.67 1022.68 1021.71 1020.79 1019.93 1019.12 1018.33 1017.54 1016.71 1015.80 1014.78 1013.66 1012.46 1011.22 1010.00 1008.86 1007.90 1007.17 1006.72 1006.57 1006.73 1007.16 1007.81 1008.62 1009.53 1010.48 1011.40 1012.28 1013.11 1013.87 1014.58 1015.28 1015.97 1016.67 1017.40 1018.15 1018.91
1027.74 1027.52 1027.16 1026.67 1026.03 1025.28 1024.42 1023.51 1022.58 1021.67 1020.78 1019.93 1019.10 1018.27 1017.40 1016.47 1015.44 1014.31 1013.09 1011.80 1010.50 1009.27 1008.16 1007.27 1006.64 1006.30 1006.28 1006.54 1007.06 1007.77 1008.61 1009.52 1010.44 1011.32 1012.16 1012.95 1013.68 1014.39 1015.09 1015.80 1016.53 1017.29 1018.06
1027.62 1027.55 1027.35 1027.01 1026.52 1025.89 1025.14 1024.29 1023.39 1022.46 1021.54 1020.65 1019.77 1018.90 1018.00 1017.04 1016.01 1014.87 1013.64 1012.33 1010.99 1009.68 1008.47 1007.44 1006.65 1006.13 1005.92 1006.00 1006.35 1006.91 1007.64 1008.47 1009.34 1010.21 1011.04 1011.84 1012.61 1013.34 1014.08 1014.82 1015.58 1016.37 1017.17
1027.63 1027.68 1027.60 1027.38 1027.00 1026.46 1025.77 1024.97 1024.08 1023.15 1022.20 1021.27 1020.34 1019.43 1018.50 1017.53 1016.49 1015.37 1014.15 1012.84 1011.50 1010.15 1008.87 1007.74 1006.80 1006.12 1005.72 1005.60 1005.75 1006.13 1006.70 1007.40 1008.17 1008.98 1009.79 1010.59 1011.37 1012.15 1012.93 1013.73 1014.54 1015.37 1016.22
1027.72 1027.85 1027.86 1027.72 1027.41 1026.94 1026.31 1025.54 1024.67 1023.73 1022.76 1021.79 1020.83 1019.88 1018.93 1017.96 1016.94 1015.84 1014.66 1013.40 1012.08 1010.73 1009.43 1008.22 1007.17 1006.34 1005.75 1005.42 1005.35 1005.51 1005.87 1006.38 1007.01 1007.71 1008.45 1009.23 1010.02 1010.84 1011.68 1012.54 1013.42 1014.31 1015.21
1027.80 1027.99 1028.06 1027.97 1027.72 1027.30 1026.72 1025.98 1025.13 1024.20 1023.22 1022.23 1021.26 1020.30 1019.35 1018.39 1017.40 1016.36 1015.24 1014.04 1012.78 1011.47 1010.17 1008.93 1007.80 1006.84 1006.07 1005.52 1005.20 1005.11 1005.22 1005.52 1005.95 1006.50 1007.14 1007.86 1008.65 1009.49 1010.38 1011.30 1012.26 1013.23 1014.19
1027.79 1028.02 1028.12 1028.09 1027.89 1027.52 1026.99 1026.30 1025.48 1024.57 1023.61 1022.63 1021.66 1020.71 1019.78 1018.85 1017.91 1016.94 1015.90 1014.79 1013.61 1012.38 1011.12 1009.88 1008.69 1007.61 1006.68 1005.92 1005.35 1004.99 1004.83 1004.87 1005.08 1005.44 1005.95 1006.59 1007.34 1008.19 1009.12 1010.11 1011.13 1012.17 1013.20
1027.63 1027.89 1028.03 1028.05 1027.91 1027.60 1027.13 1026.51 1025.74 1024.88 1023.96 1023.01 1022.06 1021.13 1020.23 1019.35 1018.48 1017.58 1016.64 1015.64 1014.57 1013.43 1012.24 1011.01 1009.80 1008.63 1007.55 1006.60 1005.79 1005.16 1004.73 1004.49 1004.46 1004.63 1004.98 1005.51 1006.20 1007.04 1007.99 1009.02 1010.11 1011.21 1012.29
1027.32 1027.60 1027.79 1027.86 1027.79 1027.56 1027.18 1026.63 1025.94 1025.15 1024.28 1023.37 1022.46 1021.57 1020.71 1019.88 1019.07 1018.26 1017.42 1016.53 1015.57 1014.53 1013.42 1012.24 1011.03 1009.80 1008.61 1007.48 1006.47 1005.60 1004.90 1004.41 1004.14 1004.10 1004.29 1004.70 1005.32 1006.11 1007.06 1008.12 1009.24 1010.39 1011.52
1026.91 1027.22 1027.46 1027.59 1027.60 1027.46 1027.16 1026.71 1026.11 1025.39 1024.58 1023.72 1022.86 1022.00 1021.18 1020.40 1019.65 1018.91 1018.16 1017.38 1016.53 1015.60 1014.58 1013.46 1012.26 1011.01 1009.74 1008.49 1007.31 1006.24 1005.32 1004.61 1004.13 1003.89 1003.92 1004.21 1004.74 1005.49 1006.41 1007.47 1008.60 1009.76 1010.91
1026.49 1026.83 1027.12 1027.32 1027.41 1027.36 1027.16 1026.79 1026.27 1025.62 1024.88 1024.07 1023.24 1022.42 1021.63 1020.88 1020.17 1019.49 1018.82 1018.12 1017.36 1016.52 1015.59 1014.54 1013.38 1012.13 1010.83 1009.51 1008.22 1007.00 1005.93 1005.05 1004.39 1004.00 1003.89 1004.06 1004.50 1005.18 1006.06 1007.08 1008.19 1009.34 1010.48
1026.16 1026.52 1026.85 1027.12 1027.28 1027.31 1027.18 1026.90 1026.45 1025.86 1025.17 1024.40 1023.60 1022.80 1022.03 1021.30 1020.61 1019.96 1019.33 1018.69 1018.00 1017.24 1016.38 1015.40 1014.30 1013.09 1011.80 1010.45 1009.12 1007.83 1006.66 1005.68 1004.91 1004.40 1004.18 1004.25 1004.60 1005.19 1006.00 1006.96 1008.01 1009.11 1010.21
1025.98 1026.37 1026.74 1027.04 1027.25 1027.34 1027.27 1027.04 1026.65 1026.12 1025.46 1024.73 1023.95 1023.16 1022.39 1021.66 1020.97 1020.33 1019.72 1019.10 1018.45 1017.74 1016.94 1016.02 1014.99 1013.84 1012.59 1011.28 1009.96 1008.67 1007.48 1006.45 1005.62 1005.05 1004.75 1004.73 1004.99 1005.49 1006.21 1007.08 1008.04 1009.06 1010.07
Thickness
5496 5501 5506 5510 5515 5519 5523 5529 5534 5539 5544 5549 5553 5559 5564 5568 5573 5578 5582 5586 5590 5593 5597 5602 5605 5609 5612 5614 5617 5618 5619 5620 5622 5623 5622 5623 5626 5628 5630 5631 5632 5633 5634
5483 5487 5492 5496 5501 5505 5510 5516 5522 5527 5532 5537 5541 5546 5551 5556 5561 5566 5571 5575 5579 5583 5587 5592 5596 5600 5603 5605 5608 5610 5612 5612 5615 5618 5618 5619 5619 5621 5623 5625 5626 5628 5628
5468 5473 5477 5482 5487 5492 5497 5502 5508 5514 5519 5524 5528 5533 5538 5543 5548 5555 5559 5564 5568 5573 5577 5582 5586 5591 5594 5597 5599 5602 5605 5607 5608 5611 5615 5615 5618 5617 5617 5618 5620 5621 5623
5455 5458 5463 5468 5473 5477 5482 5488 5495 5502 5507 5511 5517 5522 5527 5532 5538 5542 5548 5552 5557 5562 5567 5571 5576 5581 5585 5588 5591 5594 5598 5600 5602 5603 5607 5612 5615 5613 5612 5612 5613 5614 5616
5441 5445 5449 5454 5459 5464 5469 5475 5482 5488 5494 5500 5505 5510 5516 5520 5525 5530 5536 5541 5546 5551 5556 5561 5565 5570 5575 5579 5582 5585 5589 5593 5596 5598 5599 5601 5604 5608 5609 5609 5608 5608 5609
5429 5433 5437 5441 5446 5451 5457 5462 5469 5476 5482 5487 5492 5497 5503 5508 5513 5518 5524 5530 5535 5540 5544 5549 5554 5560 5565 5570 5573 5576 5580 5584 5588 5592 5595 5597 5599 5601 5604 5604 5603 5603 5603
5418 5421 5425 5429 5434 5439 5445 5450 5457 5463 5469 5475 5480 5485 5490 5496 5500 5506 5513 5518 5524 5530 5534 5539 5544 5550 5555 5560 5564 5567 5572 5575 5580 5584 5587 5591 5594 5596 5597 5597 5597 5597 5596
5407 5410 5413 5416 5421 5426 5432 5438 5445 5451 5456 5462 5468 5473 5478 5482 5488 5494 5501 5507 5513 5518 5523 5528 5533 5539 5545 5550 5554 5559 5563 5568 5572 5575 5579 5582 5586 5588 5590 5591 5591 5590 5590
5396 5399 5402 5405 5410 5415 5420 5426 5433 5439 5444 5450 5456 5461 5466 5471 5477 5483 5489 5495 5501 5506 5511 5517 5523 5528 5535 5541 5545 5550 5555 5559 5563 5567 5570 5574 5577 5580 5581 5584 5586 5588 5587
5386 5389 5391 5395 5400 5404 5409 5415 5421 5427 5433 5439 5445 5450 5456 5461 5466 5472 5477 5483 5490 5496 5501 5507 5513 5519 5525 5531 5536 5542 5547 5551 5555 5558 5562 5565 5569 5571 5573 5576 5578 5582 5584
5377 5380 5382 5386 5390 5395 5400 5406 5412 5417 5422 5428 5434 5440 5445 5450 5455 5461 5466 5471 5478 5484 5490 5496 5502 5508 5515 5520 5526 5533 5537 5543 5546 5549 5553 5557 5561 5564 5566 5568 5570 5573 5576
5367 5369 5373 5377 5382 5387 5392 5396 5401 5406 5412 5417 5422 5428 5434 5440 5445 5450 5455 5460 5466 5472 5479 5485 5491 5497 5504 5510 5516 5523 5529 5534 5538 5542 5545 5548 5552 5555 5558 5560 5563 5565 5567
5360 5362 5364 5368 5373 5378 5382 5386 5392 5397 5402 5406 5411 5416 5422 5428 5434 5439 5444 5449 5455 5461 5468 5474 5481 5487 5493 5500 5506 5512 5519 5525 5530 5534 5537 5540 5543 5547 5550 5552 5555 5556 5558
5353 5356 5358 5361 5364 5368 5373 5377 5382 5386 5391 5395 5400 5405 5410 5416 5422 5428 5433 5438 5444 5451 5457 5464 5470 5476 5483 5489 5496 5503 5509 5515 5519 5525 5528 5531 5535 5538 5541 5544 5546 5547 5549
5346 5348 5350 5353 5355 5359 5363 5366 5371 5375 5380 5384 5389 5394 5399 5404 5410 5416 5422 5427 5433 5439 5445 5452 5459 5465 5472 5480 5487 5493 5498 5504 5508 5514 5518 5521 5525 5529 5531 5534 5537 5539 5541
5337 5339 5341 5343 5346 5349 5352 5356 5360 5365 5369 5374 5378 5383 5387 5393 5398 5404 5410 5416 5422 5428 5435 5442 5449 5456 5463 5470 5476 5482 5487 5492 5497 5503 5507 5510 5514 5517 5520 5523 5526 5529 5532
5327 5329 5331 5332 5335 5338 5341 5345 5349 5353 5359 5363 5367 5372 5377 5381 5386 5392 5399 5405 5411 5417 5424 5431 5438 5446 5453 5458 5464 5470 5475 5481 5487 5492 5496 5500 5504 5507 5510 5512 5514 5518 5521
5317 5319 5320 5321 5323 5325 5329 5333 5338 5342 5346 5351 5355 5360 5365 5369 5374 5380 5387 5393 5399 5406 5413 5419 5426 5434 5441 5447 5453 5459 5464 5469 5475 5481 5486 5491 5494 5496 5499 5502 5504 5507 5510
5307 5308 5308 5310 5312 5314 5317 5321 5326 5330 5334 5339 5343 5347 5352 5357 5363 5369 5375 5381 5387 5394 5400 5407 5415 5423 5430 5435 5442 5447 5452 5458 5464 5469 5475 5479 5484 5487 5488 5491 5495 5498 5499
5297 5298 5298 5299 5301 5303 5306 5310 5314 5318 5322 5326 5330 5334 5339 5345 5351 5357 5363 5369 5374 5381 5388 5395 5403 5410 5417 5423 5429 5434 5441 5448 5454 5459 5464 5468 5473 5476 5478 5481 5484 5488 5489
5289 5289 5290 5290 5291 5292 5295 5299 5303 5306 5309 5313 5318 5322 5327 5333 5339 5346 5351 5358 5364 5370 5377 5384 5391 5398 5405 5411 5417 5423 5429 5435 5441 5447 5453 5458 5461 5465 5467 5470 5474 5478 5478
5281 5280 5281 5282 5282 5283 5285 5288 5291 5294 5297 5301 5307 5312 5316 5322 5328 5334 5340 5347 5353 5359 5365 5371 5379 5385 5392 5398 5404 5411 5417 5422 5428 5435 5441 5446 5448 5451 5455 5458 5462 5464 5465
5271 5271 5271 5272 5273 5273 5275 5278 5279 5281 5285 5290 5295 5301 5305 5311 5316 5322 5329 5336 5342 5348 5353 5359 5365 5372 5378 5384 5391 5397 5403 5409 5414 5420 5426 5430 5433 5437 5441 5444 5447 5449 5452
5262 5262 5262 5263 5264 5265 5266 5268 5269 5272 5275 5280 5284 5290 5295 5300 5305 5310 5317 5324 5330 5335 5340 5345 5352 5358 5364 5370 5376 5383 5389 5394 5399 5405 5410 5414 5418 5422 5426 5430 5433 5436 5439
5254 5254 5254 5254 5255 5256 5257 5259 5261 5263 5266 5270 5274 5279 5284 5289 5294 5300 5305 5311 5317 5323 5328 5333 5338 5345 5352 5358 5363 5369 5376 5381 5387 5391 5395 5399 5404 5408 5413 5417 5420 5423 5425
5246 5246 5246 5246 5247 5248 5250 5251 5253 5254 5257 5261 5266 5270 5274 5279 5284 5290 5295 5299 5304 5310 5315 5320 5326 5332 5338 5343 5350 5356 5363 5368 5372 5377 5382 5386 5392 5396 5400 5404 5406 5408 5411